Home > Weather > Newport > Past weeks

Flag for United Kingdom Past Weather in Newport, Wales, United Kingdom — Yesterday and Last 2 Weeks

Now
59 °F

Rain. Dense fog.


Feels Like: 58 °F
Forecast: 54 / 64 °F
Wind: 8 mph from Southwest

Location: Bristol / Lulsgate

Current Time: Jun 26, 2016 at 9:49:13 PM

Latest Report: Jun 26, 2016 at 9:20 PM


Visibility: 0 mi

Pressure: 30.04 "Hg

Humidity: 94%

Dew Point: 57 °F

Location of NewportLocation

Past Weather in Newport — Graph

°F

Newport Temperature Yesterday

Maximum temperature yesterday: 61 °F (at 9:50 AM)
Minimum temperature yesterday: 52 °F (at 1:20 AM)
Average temperature yesterday: 57 °F

High & Low Weather Summary for the Past Weeks

 TemperatureHumidityPressure
High66 °F (Jun 22, 5:20 PM)100% (Jun 12, 1:50 AM)30.24 "Hg (Jun 12, 1:50 AM)
Low50 °F (Jun 18, 3:20 AM)64% (Jun 21, 4:20 PM)29.36 "Hg (Jun 15, 4:20 AM)
Average58 °F89%29.87 "Hg
* Reported Jun 11 8:20 PM — Jun 26 8:50 PM, Newport, Weather by CustomWeather, © 2016

Note: Actual official high and low records may vary slightly from our data, if they occured in-between our weather recording intervals... More about our weather records

Advertising

Newport Weather History for the Previous 24 Hours

Scroll right to see more
 ConditionsComfort  
Time TempWeatherWind HumidityBarometerVisibility
8:50 PM
Sun, Jun 26
57 °FFog.9 mph100%30.04 "Hg0 mi
8:20 PM57 °FDrizzle. Low clouds.9 mph100%30.04 "Hg1 mi
7:50 PM57 °FFog.9 mph100%30.04 "Hg2 mi
7:20 PM57 °FFog.8 mph100%30.04 "Hg1 mi
6:50 PM57 °FFog.8 mph100%30.04 "Hg2 mi
6:20 PM57 °FDrizzle. Broken clouds.6 mph100%30.04 "HgN/A
5:50 PM57 °FDrizzle. Broken clouds.8 mph100%30.07 "Hg6 mi
5:20 PM57 °FLight rain. Scattered clouds.9 mph94%30.07 "HgN/A
4:50 PM57 °FLight rain. Broken clouds.9 mph94%30.07 "HgN/A
4:20 PM57 °FLight rain. Partly sunny.8 mph94%30.09 "Hg6 mi
3:50 PM57 °FLight rain. Mostly cloudy.14 mph94%30.09 "HgN/A
3:20 PM57 °FMostly cloudy.14 mph88%30.09 "HgN/A
2:50 PM57 °FMostly cloudy.12 mph88%30.09 "HgN/A
2:20 PM57 °FBroken clouds.13 mph88%30.09 "HgN/A
1:50 PM57 °FPartly sunny.14 mph88%30.09 "HgN/A
1:20 PM57 °FPartly sunny.14 mph82%30.12 "HgN/A
12:50 PM57 °FPartly sunny.17 mph82%30.12 "HgN/A
12:20 PM57 °FBroken clouds.16 mph82%30.12 "HgN/A
11:50 AM57 °FScattered clouds.16 mph82%30.12 "HgN/A
11:20 AM57 °FPartly sunny.13 mph82%30.12 "HgN/A
10:50 AM57 °FScattered clouds.16 mph82%30.12 "HgN/A
10:20 AM59 °FPartly sunny.15 mph77%30.09 "HgN/A
9:50 AM59 °FOvercast.15 mph77%30.09 "HgN/A
9:20 AM61 °FScattered clouds.16 mph72%30.09 "HgN/A
8:50 AM59 °FScattered clouds.14 mph82%30.09 "HgN/A
8:20 AM59 °FOvercast.13 mph82%30.09 "HgN/A
7:50 AM57 °FOvercast.10 mph88%30.09 "HgN/A
7:20 AM57 °FPartly sunny.10 mph82%30.09 "HgN/A
6:50 AM55 °FOvercast.8 mph88%30.09 "HgN/A
6:20 AM55 °FOvercast.9 mph88%30.09 "HgN/A
5:50 AM54 °FOvercast.12 mph94%30.09 "HgN/A
5:20 AM54 °FOvercast.9 mph94%30.09 "HgN/A
4:50 AM54 °FPassing clouds.9 mph88%30.09 "HgN/A
4:20 AM54 °FPassing clouds.8 mph94%30.09 "HgN/A
3:50 AM54 °FCool.10 mph88%30.09 "HgN/A
3:20 AM52 °FCool.9 mph94%30.09 "HgN/A
2:50 AM52 °FPassing clouds.7 mph94%30.09 "HgN/A
2:20 AM52 °FPassing clouds.8 mph94%30.09 "HgN/A
1:50 AM54 °FPassing clouds.8 mph88%30.09 "HgN/A
1:20 AM54 °FPassing clouds.9 mph88%30.09 "HgN/A
12:50 AM55 °FOvercast.9 mph88%30.12 "HgN/A
12:20 AM55 °FOvercast.10 mph88%30.12 "HgN/A
11:50 PM
Sat, Jun 25
55 °FPassing clouds.10 mph88%30.12 "HgN/A
11:20 PM55 °FPassing clouds.10 mph82%30.09 "HgN/A
10:50 PM57 °FPassing clouds.12 mph77%30.09 "HgN/A
10:20 PM57 °FScattered clouds.8 mph77%30.09 "HgN/A
9:50 PM57 °FPartly sunny.7 mph77%30.09 "HgN/A
9:20 PM59 °FMostly cloudy.6 mph72%30.09 "Hg3 mi
Weather by CustomWeather, © 2016

See weather overviewHow to use our weather pages